STARLINK-1305, 45377

Orbit data source: Space-Track

STARLINK-1305, 45377 is a payload satellite owned by SpaceX/Seattle (US) in LEO that was launched on Wed, 18 Mar 2020 UTC via an FALCON 9 launch vehicle from the Air Force Eastern Test Range (AFETR). Payload-class satellites include a variety of spacecraft equipped with specific instruments for various scientific and technological missions. These include communications satellites like Starlink; space stations such as the ISS; scientific satellites like the Hubble; Earth observation satellites from companies like Planet Labs, Umbra, and HawkEye 360; GPS; miniature CubeSats for education and research; and military/defense satellites.

Loading next visibility...
Identifier
45377, 2020-019T
Orbit
LEO
Country
Flag of USUS
Related business
Manufacturer
SpaceX/Seattle
Mission
Operational Commercial Communications
Bus & Motor
STARLINK, Unknown motor
Mass
260 kg wet, ~248 kg dry
Launch date (UTC)
2020-03-18 (6 years ago)
Launch vehicle
FALCON 9
Launch site
Air Force Eastern Test Range (AFETR)
Object type
Payload
Rocket body
Debris
Shape & HBR
Box + 1 Pan, 10.1 m
Radar Cross Section
13.562 m², Large (>1 m²)

Expand to show TLE details & history
Last TLE update: 6 hours ago

TLE from 6 hours ago
0 STARLINK-1305
1 45377U 20019T   25293.00001157  .01813931  00000-0  70918-1 0  9995
2 45377  53.0535  77.7732 0001440  98.5799 300.9909 15.22227100  5757
Epoch: 2025-10-20T00:00Z
TLE epoch observation values (Epoch: 2025-10-20T00:00:00.999Z)
Latitude
30.69046°
Longitude
75.41522°
Altitude
500.414 km
Speed
7.619 km/s
True Right ascension
06h 56m 30s
True Declination
30° 32' 03"
Sunlit
Object was in daylight at epoch
Visualization orbit readout
Latitude
Unknown
Longitude
Unknown
Altitude
Unknown
Speed
Unknown
Apparent Right ascension
Unknown
Apparent Declination
Unknown
Sunlit
N/A
Visualization observer readout
Local Sidereal Time
01:14:08
Azimuth
Unknown
Elevation
Unknown
Doppler factor
Unknown
Orbital elements
Apogee altitude
500.388 km
Perigee altitude
498.407 km
Semi-major axis
6,877.534 km
Eccentricity
0.00014
Inclination
53.0535°
RAAN
77.7732°
Arg. of periapsis
98.5799°
True anomaly
300.97675°
Mean anomaly
300.9909°
Eccentric anomaly
300.98383°
Mean motion
3.80534 °/min
Orbital period
94.6 mins
BSTAR
0.070918
Loading maneuver chart data...
Computing Atmospheric mass density...
Loading historical data...
Loading historical data...
Loading historical data...
Loading historical data...
Loading historical data...
Loading historical data...
Loading historical data...

Documentation

Showing up to 5 results
|